Weather History for KEED - July, 2013

Change the Weather History Date:

Monday, July 29, 2013

  Actual Average Record
Temperature  
Mean Temperature 94 °F -  
Max Temperature 109 °F 108 °F 117 °F (1972)
Min Temperature 80 °F 85 °F 74 °F (1952)
Cooling Degree Days 29    
Growing Degree Days 44 (Base 50)    
Moisture  
Dew Point 45 °F    
Average Humidity 21    
Maximum Humidity 50    
Minimum Humidity 7    
Precipitation  
Precipitation 0.00 in - - ()
Sea Level Pressure  
Sea Level Pressure 29.73 in    
Wind  
Wind Speed 7 mph (SSW)    
Max Wind Speed 21 mph    
Max Gust Speed 26 mph    
Visibility 10 miles    
Events      
Averages and records for this station are not official NWS values.
T = Trace of Precipitation, MM = Missing Value Source: NWS Daily Summary

Daily Weather History Graph

Daily Weather History Graph

Search for Another Location

Airport or City:

Trip Planner

Search our weather history database for the weather conditions in past years. The results will help you decide how hot, cold, wet, or windy it might be!

Date:

Astronomy

Jul. 29, 2013 Rise Set
Actual Time 5:46 AM PDT 7:43 PM PDT
Civil Twilight 5:18 AM PDT 8:10 PM PDT
Nautical Twilight 4:44 AM PDT 8:44 PM PDT
Astronomical Twilight 4:08 AM PDT 9:20 PM PDT
Moon No Moon Rise 1:11 PM PDT (7/29)
Length of Visible Light 14h 52m
Length of Day
13h 56m
Waning Gibbous, 50% of the Moon is Illuminated
Jul 29
Waning Gibbous
Aug 6
New
Aug 14
First Quarter
Aug 20
Full
Aug 28
Last Quarter

Hourly Weather History & Observations

Time (PDT) Temp. Heat Index Dew Point Humidity Pressure Visibility Wind Dir Wind Speed Gust Speed Precip Events Conditions
12:56 AM 87.1 °F 86.1 °F 57.9 °F 37% 29.65 in 10.0 mi WNW 5.8 mph - N/A   Clear
3:56 AM 82.0 °F 82.7 °F 61.0 °F 49% 29.66 in 10.0 mi West 4.6 mph - N/A   Unknown
4:56 AM 80.1 °F 80.9 °F 60.1 °F 50% 29.69 in 10.0 mi West 4.6 mph - N/A   Clear
5:56 AM 80.1 °F 80.9 °F 60.1 °F 50% 29.72 in 10.0 mi Calm Calm - N/A   Clear
6:56 AM 84.0 °F 83.8 °F 59.0 °F 43% 29.73 in 10.0 mi Calm Calm - N/A   Clear
7:56 AM 88.0 °F 87.1 °F 59.0 °F 37% 29.75 in 10.0 mi SSE 3.5 mph - N/A   Clear
8:56 AM 91.0 °F 89.2 °F 55.9 °F 30% 29.76 in 10.0 mi Calm Calm - N/A   Clear
9:56 AM 95.0 °F 93.0 °F 55.0 °F 26% 29.76 in 10.0 mi Variable 3.5 mph - N/A   Clear
10:56 AM 99.0 °F - 51.1 °F 20% 29.76 in 10.0 mi ESE 6.9 mph - N/A   Clear
11:56 AM 102.9 °F - 43.0 °F 13% 29.75 in 10.0 mi Calm Calm - N/A   Clear
12:21 PM 105.8 °F - 30.2 °F 7% 29.87 in 10.0 mi SSW 12.7 mph 23.0 mph N/A   Clear
12:56 PM 106.0 °F - 35.1 °F 9% 29.74 in 10.0 mi South 13.8 mph 23.0 mph N/A   Partly Cloudy
1:56 PM 108.0 °F - 37.0 °F 9% 29.73 in 10.0 mi SSW 20.7 mph 26.5 mph N/A   Partly Cloudy
2:56 PM 108.0 °F - 33.1 °F 8% 29.72 in 10.0 mi SSW 10.4 mph 19.6 mph N/A   Mostly Cloudy
3:56 PM 108.0 °F - 32.0 °F 7% 29.71 in 10.0 mi SSW 8.1 mph 21.9 mph N/A   Mostly Cloudy
4:56 PM 108.0 °F - 34.0 °F 8% 29.70 in 10.0 mi SSW 17.3 mph 20.7 mph N/A   Mostly Cloudy
5:56 PM 107.1 °F - 34.0 °F 8% 29.69 in 10.0 mi SW 11.5 mph - N/A   Mostly Cloudy
6:56 PM 106.0 °F - 35.1 °F 9% 29.70 in 10.0 mi SSW 12.7 mph - N/A   Mostly Cloudy
7:56 PM 102.9 °F - 37.0 °F 10% 29.70 in 10.0 mi SSW 11.5 mph - N/A   Mostly Cloudy
8:56 PM 100.0 °F - 37.0 °F 11% 29.73 in 10.0 mi SSW 6.9 mph - N/A   Partly Cloudy
9:56 PM 99.0 °F - 39.0 °F 13% 29.74 in 10.0 mi SW 11.5 mph - N/A   Clear
10:56 PM 97.0 °F - 39.0 °F 13% 29.75 in 10.0 mi SW 11.5 mph - N/A   Clear
11:56 PM 96.1 °F - 48.9 °F 20% 29.77 in 10.0 mi SW 8.1 mph - N/A   Clear